Time,TemperatureF,DewpointF,PressureIn,WindDirection,WindDirectionDegrees,WindSpeedMPH,WindSpeedGustMPH,Humidity,HourlyPrecipIn,Conditions,Clouds,dailyrainin,SoftwareType,DateUTC
2013-03-13 00:03:00,50.7,26.1,30.31,North,355,0.0,8.0,38,0.00,,,0.00,meteohub,2013-03-13 05:03:00,
2013-03-13 00:08:00,50.5,25.9,30.31,North,350,0.0,8.0,38,0.00,,,0.00,meteohub,2013-03-13 05:08:00,
2013-03-13 00:13:00,50.5,25.9,30.31,North,5,0.0,5.0,38,0.00,,,0.00,meteohub,2013-03-13 05:13:00,
2013-03-13 00:18:00,50.4,26.4,30.31,North,355,0.0,5.0,39,0.00,,,0.00,meteohub,2013-03-13 05:18:00,
2013-03-13 00:23:00,50.2,26.2,30.31,North,355,0.0,7.0,39,0.00,,,0.00,meteohub,2013-03-13 05:23:00,
2013-03-13 00:28:00,50.0,26.1,30.31,North,355,0.0,7.0,39,0.00,,,0.00,meteohub,2013-03-13 05:28:00,
2013-03-13 00:33:00,49.6,25.7,30.31,North,355,0.0,6.0,39,0.00,,,0.00,meteohub,2013-03-13 05:33:00,
2013-03-13 00:38:00,49.5,26.1,30.31,North,351,0.0,6.0,40,0.00,,,0.00,meteohub,2013-03-13 05:38:00,
2013-03-13 00:43:00,49.3,26.1,30.31,North,355,0.0,6.0,40,0.00,,,0.00,meteohub,2013-03-13 05:43:00,
2013-03-13 00:48:00,48.9,25.7,30.31,North,355,0.0,0.0,40,0.00,,,0.00,meteohub,2013-03-13 05:48:00,
2013-03-13 00:53:00,48.7,25.5,30.31,North,355,0.0,0.0,40,0.00,,,0.00,meteohub,2013-03-13 05:53:00,
2013-03-13 00:58:00,48.6,25.9,30.32,North,355,0.0,0.0,41,0.00,,,0.00,meteohub,2013-03-13 05:58:00,
2013-03-13 01:03:00,48.6,25.9,30.32,North,355,0.0,0.0,41,0.00,,,0.00,meteohub,2013-03-13 06:03:00,
2013-03-13 01:08:00,48.4,25.7,30.31,North,355,0.0,0.0,41,0.00,,,0.00,meteohub,2013-03-13 06:08:00,
2013-03-13 01:13:00,48.4,26.4,30.32,North,355,0.0,0.0,42,0.00,,,0.00,meteohub,2013-03-13 06:13:00,
2013-03-13 01:18:00,48.2,26.2,30.32,North,355,0.0,0.0,42,0.00,,,0.00,meteohub,2013-03-13 06:18:00,
2013-03-13 01:23:00,48.2,25.5,30.32,NNW,344,0.0,0.0,41,0.00,,,0.00,meteohub,2013-03-13 06:23:00,
2013-03-13 01:28:00,48.0,26.1,30.32,NNW,345,0.0,6.0,42,0.00,,,0.00,meteohub,2013-03-13 06:28:00,
2013-03-13 01:33:00,47.8,25.9,30.32,NNW,345,0.0,6.0,42,0.00,,,0.00,meteohub,2013-03-13 06:33:00,
2013-03-13 01:38:00,47.8,25.9,30.32,NNW,346,0.0,6.0,42,0.00,,,0.00,meteohub,2013-03-13 06:38:00,
2013-03-13 01:43:00,47.7,25.7,30.32,NNW,347,0.0,6.0,42,0.00,,,0.00,meteohub,2013-03-13 06:43:00,
2013-03-13 01:48:00,47.7,26.2,30.33,NNW,348,0.0,5.0,43,0.00,,,0.00,meteohub,2013-03-13 06:48:00,
2013-03-13 01:53:00,47.3,25.9,30.32,NNW,344,5.0,5.0,43,0.00,,,0.00,meteohub,2013-03-13 06:53:00,
2013-03-13 01:58:00,46.8,26.1,30.32,NNW,345,2.0,6.0,44,0.00,,,0.00,meteohub,2013-03-13 06:58:00,
2013-03-13 02:03:00,46.4,26.2,30.32,NNW,345,0.0,6.0,45,0.00,,,0.00,meteohub,2013-03-13 07:03:00,
2013-03-13 02:08:00,46.0,25.9,30.32,NNW,344,0.0,7.0,45,0.00,,,0.00,meteohub,2013-03-13 07:08:00,
2013-03-13 02:13:00,45.9,26.2,30.32,NNW,344,0.0,7.0,46,0.00,,,0.00,meteohub,2013-03-13 07:13:00,
2013-03-13 02:18:00,45.7,26.1,30.33,NNW,344,0.0,7.0,46,0.00,,,0.00,meteohub,2013-03-13 07:18:00,
2013-03-13 02:23:00,45.7,26.1,30.32,NNW,343,0.0,7.0,46,0.00,,,0.00,meteohub,2013-03-13 07:23:00,
2013-03-13 02:28:00,45.5,25.9,30.33,NNW,344,0.0,1.0,46,0.00,,,0.00,meteohub,2013-03-13 07:28:00,
2013-03-13 02:33:00,45.3,25.7,30.33,NNW,346,0.0,1.0,46,0.00,,,0.00,meteohub,2013-03-13 07:33:00,
2013-03-13 02:38:00,45.1,25.5,30.33,NNW,344,0.0,4.0,46,0.00,,,0.00,meteohub,2013-03-13 07:38:00,
2013-03-13 02:43:00,44.8,25.7,30.33,NNW,342,0.0,4.0,47,0.00,,,0.00,meteohub,2013-03-13 07:43:00,
2013-03-13 02:48:00,44.4,25.5,30.33,NNW,342,0.0,6.0,47,0.00,,,0.00,meteohub,2013-03-13 07:48:00,
2013-03-13 02:53:00,44.2,25.3,30.33,NNW,342,0.0,6.0,47,0.00,,,0.00,meteohub,2013-03-13 07:53:00,
2013-03-13 02:58:00,44.1,25.7,30.33,NNW,342,0.0,6.0,48,0.00,,,0.00,meteohub,2013-03-13 07:58:00,
2013-03-13 03:04:00,43.9,25.5,30.33,NNW,342,0.0,6.0,48,0.00,,,0.00,meteohub,2013-03-13 08:04:00,
2013-03-13 03:09:00,43.7,25.3,30.33,NNW,342,0.0,0.0,48,0.00,,,0.00,meteohub,2013-03-13 08:09:00,
2013-03-13 03:14:00,43.5,25.7,30.33,NNW,342,0.0,0.0,49,0.00,,,0.00,meteohub,2013-03-13 08:14:00,
2013-03-13 03:19:00,43.3,25.5,30.33,NNW,342,0.0,0.0,49,0.00,,,0.00,meteohub,2013-03-13 08:19:00,
2013-03-13 03:24:00,43.2,25.3,30.33,NNW,340,0.0,0.0,49,0.00,,,0.00,meteohub,2013-03-13 08:24:00,
2013-03-13 03:29:00,43.0,25.7,30.33,NNW,339,0.0,0.0,50,0.00,,,0.00,meteohub,2013-03-13 08:29:00,
2013-03-13 03:34:00,42.8,25.5,30.33,NNW,338,0.0,0.0,50,0.00,,,0.00,meteohub,2013-03-13 08:34:00,
2013-03-13 03:39:00,42.8,25.9,30.34,NNW,338,0.0,5.0,51,0.00,,,0.00,meteohub,2013-03-13 08:39:00,
2013-03-13 03:44:00,42.6,25.7,30.33,NNW,338,0.0,5.0,51,0.00,,,0.00,meteohub,2013-03-13 08:44:00,
2013-03-13 03:49:00,42.8,25.9,30.34,NNW,338,0.0,5.0,51,0.00,,,0.00,meteohub,2013-03-13 08:49:00,
2013-03-13 03:54:00,42.8,25.9,30.34,NNW,338,0.0,5.0,51,0.00,,,0.00,meteohub,2013-03-13 08:54:00,
2013-03-13 03:59:00,42.8,25.9,30.33,NNW,337,0.0,5.0,51,0.00,,,0.00,meteohub,2013-03-13 08:59:00,
2013-03-13 04:04:00,42.6,25.7,30.34,NNW,337,0.0,5.0,51,0.00,,,0.00,meteohub,2013-03-13 09:04:00,
2013-03-13 04:09:00,42.6,25.3,30.33,NNW,337,0.0,5.0,50,0.00,,,0.00,meteohub,2013-03-13 09:09:00,
2013-03-13 04:14:00,42.4,25.5,30.33,NNW,337,0.0,0.0,51,0.00,,,0.00,meteohub,2013-03-13 09:14:00,
2013-03-13 04:19:00,42.4,25.5,30.33,NNW,336,0.0,0.0,51,0.00,,,0.00,meteohub,2013-03-13 09:19:00,
2013-03-13 04:24:00,42.4,25.5,30.33,NNW,336,0.0,0.0,51,0.00,,,0.00,meteohub,2013-03-13 09:24:00,
2013-03-13 04:29:00,42.4,25.2,30.33,NNW,336,0.0,0.0,50,0.00,,,0.00,meteohub,2013-03-13 09:29:00,
2013-03-13 04:34:00,42.4,25.5,30.33,NNW,336,0.0,0.0,51,0.00,,,0.00,meteohub,2013-03-13 09:34:00,
2013-03-13 04:39:00,42.4,25.2,30.33,NNW,336,0.0,0.0,50,0.00,,,0.00,meteohub,2013-03-13 09:39:00,
2013-03-13 04:44:00,42.3,25.0,30.33,NNW,336,0.0,0.0,50,0.00,,,0.00,meteohub,2013-03-13 09:44:00,
2013-03-13 04:49:00,42.3,25.0,30.33,NNW,336,0.0,0.0,50,0.00,,,0.00,meteohub,2013-03-13 09:49:00,
2013-03-13 04:54:00,41.9,25.2,30.33,NNW,336,0.0,0.0,51,0.00,,,0.00,meteohub,2013-03-13 09:54:00,
2013-03-13 04:59:00,41.7,25.0,30.33,NNW,336,0.0,0.0,51,0.00,,,0.00,meteohub,2013-03-13 09:59:00,
2013-03-13 05:04:00,41.5,25.2,30.34,NNW,336,0.0,0.0,52,0.00,,,0.00,meteohub,2013-03-13 10:04:00,
2013-03-13 05:09:00,41.5,25.2,30.34,NNW,336,0.0,0.0,52,0.00,,,0.00,meteohub,2013-03-13 10:09:00,
2013-03-13 05:14:00,41.4,25.0,30.34,NNW,335,0.0,0.0,52,0.00,,,0.00,meteohub,2013-03-13 10:14:00,
2013-03-13 05:19:00,41.4,25.0,30.34,NNW,335,5.0,0.0,52,0.00,,,0.00,meteohub,2013-03-13 10:19:00,
2013-03-13 05:24:00,41.4,25.0,30.34,NNW,331,0.0,0.0,52,0.00,,,0.00,meteohub,2013-03-13 10:24:00,
2013-03-13 05:29:00,41.2,24.8,30.35,NNW,333,0.0,6.0,52,0.00,,,0.00,meteohub,2013-03-13 10:29:00,
2013-03-13 05:34:00,41.2,24.8,30.35,NNW,330,0.0,6.0,52,0.00,,,0.00,meteohub,2013-03-13 10:34:00,
2013-03-13 05:39:00,41.2,24.8,30.35,NNW,330,0.0,6.0,52,0.00,,,0.00,meteohub,2013-03-13 10:39:00,
2013-03-13 05:44:00,41.2,24.8,30.35,NW,323,0.0,6.0,52,0.00,,,0.00,meteohub,2013-03-13 10:44:00,
2013-03-13 05:49:00,41.2,24.8,30.35,NW,323,0.0,6.0,52,0.00,,,0.00,meteohub,2013-03-13 10:49:00,
2013-03-13 05:54:00,41.2,25.3,30.35,NW,325,0.0,6.0,53,0.00,,,0.00,meteohub,2013-03-13 10:54:00,
2013-03-13 05:59:00,41.2,25.3,30.35,NW,325,4.0,6.0,53,0.00,,,0.00,meteohub,2013-03-13 10:59:00,
2013-03-13 06:05:00,41.0,25.2,30.35,NNW,329,0.0,6.0,53,0.00,,,0.00,meteohub,2013-03-13 11:05:00,
2013-03-13 06:10:00,41.0,25.2,30.35,NNW,334,0.0,6.0,53,0.00,,,0.00,meteohub,2013-03-13 11:10:00,
2013-03-13 06:15:00,40.8,25.5,30.35,NNW,336,0.0,6.0,54,0.00,,,0.00,meteohub,2013-03-13 11:15:00,
2013-03-13 06:20:00,40.6,25.3,30.35,NNW,336,0.0,6.0,54,0.00,,,0.00,meteohub,2013-03-13 11:20:00,
2013-03-13 06:25:00,40.5,25.2,30.35,NNW,336,0.0,6.0,54,0.00,,,0.00,meteohub,2013-03-13 11:25:00,
2013-03-13 06:30:00,40.3,25.3,30.36,NNW,336,0.0,6.0,55,0.00,,,0.00,meteohub,2013-03-13 11:30:00,
2013-03-13 06:35:00,40.3,25.3,30.36,NNW,336,0.0,0.0,55,0.00,,,0.00,meteohub,2013-03-13 11:35:00,
2013-03-13 06:40:00,40.3,25.3,30.36,NNW,336,0.0,0.0,55,0.00,,,0.00,meteohub,2013-03-13 11:40:00,
2013-03-13 06:45:00,40.1,25.2,30.37,NNW,336,0.0,0.0,55,0.00,,,0.00,meteohub,2013-03-13 11:45:00,
2013-03-13 06:50:00,40.1,25.7,30.37,NNW,336,0.0,0.0,56,0.00,,,0.00,meteohub,2013-03-13 11:50:00,
2013-03-13 06:55:00,40.1,25.7,30.36,NNW,336,0.0,0.0,56,0.00,,,0.00,meteohub,2013-03-13 11:55:00,
2013-03-13 07:00:00,40.1,25.7,30.36,NNW,336,0.0,0.0,56,0.00,,,0.00,meteohub,2013-03-13 12:00:00,
2013-03-13 07:05:00,40.1,25.7,30.37,NNW,336,0.0,0.0,56,0.00,,,0.00,meteohub,2013-03-13 12:05:00,
2013-03-13 07:10:00,40.1,25.7,30.37,NNW,336,0.0,0.0,56,0.00,,,0.00,meteohub,2013-03-13 12:10:00,
2013-03-13 07:15:00,39.9,25.5,30.37,NNW,336,0.0,0.0,56,0.00,,,0.00,meteohub,2013-03-13 12:15:00,
2013-03-13 07:20:00,39.9,25.9,30.37,NNW,336,0.0,0.0,57,0.00,,,0.00,meteohub,2013-03-13 12:20:00,
2013-03-13 07:25:00,39.7,25.7,30.38,NNW,336,0.0,0.0,57,0.00,,,0.00,meteohub,2013-03-13 12:25:00,
2013-03-13 07:30:00,39.6,25.5,30.38,NNW,336,0.0,0.0,57,0.00,,,0.00,meteohub,2013-03-13 12:30:00,
2013-03-13 07:35:00,39.6,26.1,30.38,NNW,336,0.0,0.0,58,0.00,,,0.00,meteohub,2013-03-13 12:35:00,
2013-03-13 07:40:00,39.4,25.9,30.38,NNW,336,0.0,0.0,58,0.00,,,0.00,meteohub,2013-03-13 12:40:00,
2013-03-13 07:45:00,39.0,25.9,30.38,NNW,336,0.0,0.0,59,0.00,,,0.00,meteohub,2013-03-13 12:45:00,
2013-03-13 07:50:00,38.8,25.3,30.38,NNW,336,0.0,0.0,58,0.00,,,0.00,meteohub,2013-03-13 12:50:00,
2013-03-13 07:55:00,38.5,25.3,30.38,NNW,336,0.0,0.0,59,0.00,,,0.00,meteohub,2013-03-13 12:55:00,
2013-03-13 08:00:00,38.1,25.5,30.39,NNW,336,0.0,0.0,60,0.00,,,0.00,meteohub,2013-03-13 13:00:00,
2013-03-13 08:05:00,37.9,26.1,30.39,NNW,336,0.0,0.0,62,0.00,,,0.00,meteohub,2013-03-13 13:05:00,
2013-03-13 08:10:00,37.9,25.7,30.40,NNW,333,0.0,0.0,61,0.00,,,0.00,meteohub,2013-03-13 13:10:00,
2013-03-13 08:15:00,37.8,25.2,30.40,NNW,333,0.0,0.0,60,0.00,,,0.00,meteohub,2013-03-13 13:15:00,
2013-03-13 08:20:00,37.8,25.2,30.40,NNW,333,0.0,0.0,60,0.00,,,0.00,meteohub,2013-03-13 13:20:00,
2013-03-13 08:25:00,37.8,25.2,30.40,NNW,332,0.0,0.0,60,0.00,,,0.00,meteohub,2013-03-13 13:25:00,
2013-03-13 08:31:00,37.8,25.5,30.40,NNW,332,0.0,0.0,61,0.00,,,0.00,meteohub,2013-03-13 13:31:00,
2013-03-13 08:36:00,37.8,25.5,30.40,NNW,332,0.0,0.0,61,0.00,,,0.00,meteohub,2013-03-13 13:36:00,
2013-03-13 08:41:00,38.1,25.9,30.40,NNW,332,0.0,0.0,61,0.00,,,0.00,meteohub,2013-03-13 13:41:00,
2013-03-13 08:47:00,38.5,25.9,30.40,NNW,332,0.0,0.0,60,0.00,,,0.00,meteohub,2013-03-13 13:47:00,
2013-03-13 08:52:00,39.2,26.4,30.40,NNW,332,0.0,0.0,60,0.00,,,0.00,meteohub,2013-03-13 13:52:00,
2013-03-13 08:57:00,39.7,26.6,30.40,NNW,332,0.0,0.0,59,0.00,,,0.00,meteohub,2013-03-13 13:57:00,
2013-03-13 09:02:00,40.5,26.8,30.41,NNW,332,0.0,0.0,58,0.00,,,0.00,meteohub,2013-03-13 14:02:00,
2013-03-13 09:07:00,41.4,27.3,30.41,NNW,332,0.0,0.0,57,0.00,,,0.00,meteohub,2013-03-13 14:07:00,
2013-03-13 09:12:00,42.3,27.3,30.42,NNW,332,0.0,0.0,55,0.00,,,0.00,meteohub,2013-03-13 14:12:00,
2013-03-13 09:17:00,43.2,27.7,30.42,NNW,332,0.0,0.0,54,0.00,,,0.00,meteohub,2013-03-13 14:17:00,
2013-03-13 09:22:00,44.1,28.0,30.42,NNW,332,0.0,0.0,53,0.00,,,0.00,meteohub,2013-03-13 14:22:00,
2013-03-13 09:27:00,44.8,27.7,30.42,NNW,332,0.0,0.0,51,0.00,,,0.00,meteohub,2013-03-13 14:27:00,
2013-03-13 09:32:00,45.9,28.2,30.41,NNW,332,0.0,0.0,50,0.00,,,0.00,meteohub,2013-03-13 14:32:00,
2013-03-13 09:37:00,46.8,28.0,30.41,NNW,332,0.0,0.0,48,0.00,,,0.00,meteohub,2013-03-13 14:37:00,
2013-03-13 09:42:00,48.0,28.2,30.41,NNW,332,0.0,0.0,46,0.00,,,0.00,meteohub,2013-03-13 14:42:00,
2013-03-13 09:47:00,49.5,27.9,30.41,NNW,332,0.0,0.0,43,0.00,,,0.00,meteohub,2013-03-13 14:47:00,
2013-03-13 09:52:00,50.5,28.2,30.41,NNW,332,0.0,0.0,42,0.00,,,0.00,meteohub,2013-03-13 14:52:00,
2013-03-13 09:57:00,51.4,28.6,30.41,NNW,332,0.0,0.0,41,0.00,,,0.00,meteohub,2013-03-13 14:57:00,
2013-03-13 10:02:00,52.5,28.9,30.41,NNW,340,0.0,0.0,40,0.00,,,0.00,meteohub,2013-03-13 15:02:00,
2013-03-13 10:07:00,53.2,28.9,30.41,SE,126,0.0,0.0,39,0.00,,,0.00,meteohub,2013-03-13 15:07:00,
2013-03-13 10:12:00,54.0,29.5,30.41,SE,128,0.0,7.0,39,0.00,,,0.00,meteohub,2013-03-13 15:12:00,
2013-03-13 10:17:00,54.5,30.0,30.41,ESE,121,2.0,7.0,39,0.00,,,0.00,meteohub,2013-03-13 15:17:00,
2013-03-13 10:22:00,54.9,29.7,30.41,SSE,161,1.0,7.0,38,0.00,,,0.00,meteohub,2013-03-13 15:22:00,
2013-03-13 10:27:00,55.4,30.2,30.41,SSE,166,0.0,7.0,38,0.00,,,0.00,meteohub,2013-03-13 15:27:00,
2013-03-13 10:32:00,56.1,30.2,30.41,SSE,156,6.0,10.0,37,0.00,,,0.00,meteohub,2013-03-13 15:32:00,
2013-03-13 10:37:00,56.7,30.0,30.41,SE,141,5.0,10.0,36,0.00,,,0.00,meteohub,2013-03-13 15:37:00,
2013-03-13 10:42:00,57.4,30.0,30.41,SSE,160,2.0,12.0,35,0.00,,,0.00,meteohub,2013-03-13 15:42:00,
2013-03-13 10:48:00,57.7,29.5,30.41,SE,145,4.0,12.0,34,0.00,,,0.00,meteohub,2013-03-13 15:48:00,
2013-03-13 10:53:00,58.3,30.0,30.40,ESE,117,9.0,12.0,34,0.00,,,0.00,meteohub,2013-03-13 15:53:00,
2013-03-13 10:58:00,58.6,30.4,30.41,South,183,5.0,16.0,34,0.00,,,0.00,meteohub,2013-03-13 15:58:00,
2013-03-13 11:03:00,59.2,29.3,30.41,ESE,107,8.0,16.0,32,0.00,,,0.00,meteohub,2013-03-13 16:03:00,
2013-03-13 11:08:00,59.2,29.3,30.40,South,182,7.0,15.0,32,0.00,,,0.00,meteohub,2013-03-13 16:08:00,
2013-03-13 11:13:00,59.4,29.5,30.40,SSE,164,7.0,15.0,32,0.00,,,0.00,meteohub,2013-03-13 16:13:00,
2013-03-13 11:18:00,59.4,29.5,30.40,SSE,162,5.0,15.0,32,0.00,,,0.00,meteohub,2013-03-13 16:18:00,
2013-03-13 11:23:00,59.5,28.9,30.40,ESE,117,9.0,15.0,31,0.00,,,0.00,meteohub,2013-03-13 16:23:00,
2013-03-13 11:28:00,59.5,28.9,30.40,SE,144,8.0,20.0,31,0.00,,,0.00,meteohub,2013-03-13 16:28:00,
2013-03-13 11:33:00,59.7,28.9,30.40,SSE,162,5.0,20.0,31,0.00,,,0.00,meteohub,2013-03-13 16:33:00,
2013-03-13 11:38:00,60.1,29.3,30.40,SSE,165,2.0,21.0,31,0.00,,,0.00,meteohub,2013-03-13 16:38:00,
2013-03-13 11:43:00,60.3,29.5,30.40,SE,132,8.0,21.0,31,0.00,,,0.00,meteohub,2013-03-13 16:43:00,
2013-03-13 11:48:00,60.4,29.7,30.40,ESE,116,15.0,18.0,31,0.00,,,0.00,meteohub,2013-03-13 16:48:00,
2013-03-13 11:53:00,60.4,29.7,30.40,SSE,148,4.0,18.0,31,0.00,,,0.00,meteohub,2013-03-13 16:53:00,
2013-03-13 11:58:00,60.6,30.6,30.40,SE,144,7.0,17.0,32,0.00,,,0.00,meteohub,2013-03-13 16:58:00,
2013-03-13 12:03:00,61.0,30.9,30.40,SSE,151,0.0,17.0,32,0.00,,,0.00,meteohub,2013-03-13 17:03:00,
2013-03-13 12:08:00,61.2,31.1,30.39,South,190,8.0,17.0,32,0.00,,,0.00,meteohub,2013-03-13 17:08:00,
2013-03-13 12:13:00,61.3,31.3,30.39,South,189,5.0,17.0,32,0.00,,,0.00,meteohub,2013-03-13 17:13:00,
2013-03-13 12:18:00,61.5,32.2,30.39,SSE,166,2.0,19.0,33,0.00,,,0.00,meteohub,2013-03-13 17:18:00,
2013-03-13 12:23:00,61.7,32.4,30.39,SSE,156,5.0,19.0,33,0.00,,,0.00,meteohub,2013-03-13 17:23:00,
2013-03-13 12:28:00,62.2,32.7,30.39,SE,144,11.0,18.0,33,0.00,,,0.00,meteohub,2013-03-13 17:28:00,
2013-03-13 12:33:00,62.2,32.7,30.38,SSE,149,10.0,18.0,33,0.00,,,0.00,meteohub,2013-03-13 17:33:00,
2013-03-13 12:38:00,62.4,32.9,30.38,ESE,111,1.0,18.0,33,0.00,,,0.00,meteohub,2013-03-13 17:38:00,
2013-03-13 12:43:00,63.1,32.7,30.38,South,186,0.0,20.0,32,0.00,,,0.00,meteohub,2013-03-13 17:43:00,
2013-03-13 12:48:00,63.7,33.3,30.37,SE,128,12.0,20.0,32,0.00,,,0.00,meteohub,2013-03-13 17:48:00,
2013-03-13 12:53:00,64.6,34.0,30.37,South,184,0.0,20.0,32,0.00,,,0.00,meteohub,2013-03-13 17:53:00,
2013-03-13 12:58:00,65.5,34.0,30.37,South,178,0.0,15.0,31,0.00,,,0.00,meteohub,2013-03-13 17:58:00,
2013-03-13 13:03:00,65.8,33.6,30.37,ESE,111,11.0,15.0,30,0.00,,,0.00,meteohub,2013-03-13 18:03:00,
2013-03-13 13:08:00,65.8,34.3,30.37,SSE,163,10.0,17.0,31,0.00,,,0.00,meteohub,2013-03-13 18:08:00,
2013-03-13 13:13:00,65.8,33.6,30.37,SSE,147,0.0,17.0,30,0.00,,,0.00,meteohub,2013-03-13 18:13:00,
2013-03-13 13:18:00,66.4,34.0,30.37,SSE,167,0.0,20.0,30,0.00,,,0.00,meteohub,2013-03-13 18:18:00,
2013-03-13 13:23:00,66.7,34.3,30.36,SW,223,0.0,20.0,30,0.00,,,0.00,meteohub,2013-03-13 18:23:00,
2013-03-13 13:28:00,66.9,33.6,30.36,SSE,150,5.0,14.0,29,0.00,,,0.00,meteohub,2013-03-13 18:28:00,
2013-03-13 13:33:00,66.7,34.3,30.36,South,191,6.0,14.0,30,0.00,,,0.00,meteohub,2013-03-13 18:33:00,
2013-03-13 13:39:00,67.3,34.0,30.35,SSW,197,5.0,13.0,29,0.00,,,0.00,meteohub,2013-03-13 18:39:00,
2013-03-13 13:43:00,67.5,34.2,30.35,SSW,200,4.0,13.0,29,0.00,,,0.00,meteohub,2013-03-13 18:43:00,
2013-03-13 13:48:00,68.2,34.7,30.35,South,171,0.0,18.0,29,0.00,,,0.00,meteohub,2013-03-13 18:48:00,
2013-03-13 13:54:00,68.5,35.1,30.34,SE,142,0.0,18.0,29,0.00,,,0.00,meteohub,2013-03-13 18:54:00,
2013-03-13 13:59:00,68.5,34.2,30.34,SSW,196,6.0,18.0,28,0.00,,,0.00,meteohub,2013-03-13 18:59:00,
2013-03-13 14:04:00,68.5,35.1,30.34,SSW,193,0.0,18.0,29,0.00,,,0.00,meteohub,2013-03-13 19:04:00,
2013-03-13 14:09:00,69.3,34.7,30.34,South,183,6.0,15.0,28,0.00,,,0.00,meteohub,2013-03-13 19:09:00,
2013-03-13 14:14:00,69.4,34.9,30.34,South,180,0.0,15.0,28,0.00,,,0.00,meteohub,2013-03-13 19:14:00,
2013-03-13 14:19:00,69.6,34.2,30.33,SW,222,0.0,15.0,27,0.00,,,0.00,meteohub,2013-03-13 19:19:00,
2013-03-13 14:24:00,70.5,34.9,30.33,SSE,149,4.0,15.0,27,0.00,,,0.00,meteohub,2013-03-13 19:24:00,
2013-03-13 14:29:00,70.5,34.9,30.32,SW,215,0.0,15.0,27,0.00,,,0.00,meteohub,2013-03-13 19:29:00,
2013-03-13 14:34:00,70.5,34.9,30.32,SW,225,0.0,15.0,27,0.00,,,0.00,meteohub,2013-03-13 19:34:00,
2013-03-13 14:39:00,71.1,34.5,30.32,SW,224,0.0,10.0,26,0.00,,,0.00,meteohub,2013-03-13 19:39:00,
2013-03-13 14:44:00,71.1,34.5,30.31,SSW,206,0.0,10.0,26,0.00,,,0.00,meteohub,2013-03-13 19:44:00,
2013-03-13 14:49:00,71.2,34.5,30.31,SSW,205,0.0,9.0,26,0.00,,,0.00,meteohub,2013-03-13 19:49:00,
2013-03-13 14:54:00,71.2,34.5,30.30,SSE,151,0.0,9.0,26,0.00,,,0.00,meteohub,2013-03-13 19:54:00,
2013-03-13 14:59:00,71.2,34.5,30.30,South,180,7.0,12.0,26,0.00,,,0.00,meteohub,2013-03-13 19:59:00,
2013-03-13 15:04:00,71.2,34.5,30.30,SW,218,0.0,12.0,26,0.00,,,0.00,meteohub,2013-03-13 20:04:00,
2013-03-13 15:09:00,71.4,34.7,30.29,South,180,2.0,12.0,26,0.00,,,0.00,meteohub,2013-03-13 20:09:00,
2013-03-13 15:14:00,72.0,34.2,30.29,SW,234,0.0,12.0,25,0.00,,,0.00,meteohub,2013-03-13 20:14:00,
2013-03-13 15:19:00,72.7,33.8,30.28,SSE,154,1.0,11.0,24,0.00,,,0.00,meteohub,2013-03-13 20:19:00,
2013-03-13 15:24:00,72.7,33.8,30.28,East,94,2.0,11.0,24,0.00,,,0.00,meteohub,2013-03-13 20:24:00,
2013-03-13 15:29:00,72.7,33.8,30.28,SSE,165,1.0,8.0,24,0.00,,,0.00,meteohub,2013-03-13 20:29:00,
2013-03-13 15:34:00,72.5,33.6,30.28,SSW,207,0.0,8.0,24,0.00,,,0.00,meteohub,2013-03-13 20:34:00,
2013-03-13 15:39:00,72.5,33.6,30.27,SW,221,0.0,13.0,24,0.00,,,0.00,meteohub,2013-03-13 20:39:00,
2013-03-13 15:44:00,72.7,33.8,30.28,South,189,0.0,13.0,24,0.00,,,0.00,meteohub,2013-03-13 20:44:00,
2013-03-13 15:49:00,73.0,33.1,30.27,WSW,246,3.0,11.0,23,0.00,,,0.00,meteohub,2013-03-13 20:49:00,
2013-03-13 15:54:00,73.4,33.3,30.27,SW,234,4.0,10.0,23,0.00,,,0.00,meteohub,2013-03-13 20:54:00,
2013-03-13 15:59:00,73.2,33.3,30.27,WSW,253,0.0,10.0,23,0.00,,,0.00,meteohub,2013-03-13 20:59:00,
2013-03-13 16:04:00,73.0,33.1,30.27,WSW,253,0.0,10.0,23,0.00,,,0.00,meteohub,2013-03-13 21:04:00,
2013-03-13 16:09:00,73.6,33.4,30.27,WSW,253,0.0,10.0,23,0.00,,,0.00,meteohub,2013-03-13 21:09:00,
2013-03-13 16:14:00,73.9,33.8,30.26,WSW,248,0.0,3.0,23,0.00,,,0.00,meteohub,2013-03-13 21:14:00,
2013-03-13 16:19:00,74.5,34.3,30.26,WSW,247,0.0,3.0,23,0.00,,,0.00,meteohub,2013-03-13 21:19:00,
2013-03-13 16:24:00,75.0,33.6,30.26,SSE,159,1.0,3.0,22,0.00,,,0.00,meteohub,2013-03-13 21:24:00,
2013-03-13 16:30:00,75.0,34.7,30.25,South,180,0.0,1.0,23,0.00,,,0.00,meteohub,2013-03-13 21:30:00,
2013-03-13 16:35:00,75.0,34.7,30.25,SW,230,0.0,1.0,23,0.00,,,0.00,meteohub,2013-03-13 21:35:00,
2013-03-13 16:40:00,75.0,33.6,30.25,SSW,208,0.0,12.0,22,0.00,,,0.00,meteohub,2013-03-13 21:40:00,
2013-03-13 16:45:00,75.0,33.6,30.25,SSW,208,0.0,12.0,22,0.00,,,0.00,meteohub,2013-03-13 21:45:00,
2013-03-13 16:50:00,75.0,33.6,30.24,South,177,0.0,20.0,22,0.00,,,0.00,meteohub,2013-03-13 21:50:00,
2013-03-13 16:55:00,75.0,33.6,30.24,SE,132,2.0,8.0,22,0.00,,,0.00,meteohub,2013-03-13 21:55:00,
2013-03-13 17:00:00,75.4,34.0,30.24,SW,232,5.0,8.0,22,0.00,,,0.00,meteohub,2013-03-13 22:00:00,
2013-03-13 17:05:00,75.6,34.0,30.24,WSW,242,0.0,8.0,22,0.00,,,0.00,meteohub,2013-03-13 22:05:00,
2013-03-13 17:10:00,75.4,34.0,30.23,SE,140,4.0,10.0,22,0.00,,,0.00,meteohub,2013-03-13 22:10:00,
2013-03-13 17:15:00,75.0,33.6,30.23,SSE,148,0.0,10.0,22,0.00,,,0.00,meteohub,2013-03-13 22:15:00,
2013-03-13 17:20:00,75.4,34.0,30.23,SSW,202,0.0,10.0,22,0.00,,,0.00,meteohub,2013-03-13 22:20:00,
2013-03-13 17:25:00,75.6,32.9,30.23,SSW,200,0.0,10.0,21,0.00,,,0.00,meteohub,2013-03-13 22:25:00,
2013-03-13 17:30:00,75.9,34.3,30.23,SSW,202,0.0,8.0,22,0.00,,,0.00,meteohub,2013-03-13 22:30:00,
2013-03-13 17:35:00,76.5,33.6,30.22,SW,225,0.0,7.0,21,0.00,,,0.00,meteohub,2013-03-13 22:35:00,
2013-03-13 17:40:00,76.6,33.8,30.22,SSW,194,0.0,7.0,21,0.00,,,0.00,meteohub,2013-03-13 22:40:00,
2013-03-13 17:45:00,76.6,33.8,30.22,SSE,163,0.0,7.0,21,0.00,,,0.00,meteohub,2013-03-13 22:45:00,
2013-03-13 17:50:00,76.5,33.6,30.22,SE,138,0.0,9.0,21,0.00,,,0.00,meteohub,2013-03-13 22:50:00,
2013-03-13 17:55:00,76.5,33.6,30.22,SE,138,0.0,9.0,21,0.00,,,0.00,meteohub,2013-03-13 22:55:00,
2013-03-13 18:00:00,76.5,33.6,30.22,SSE,152,1.0,9.0,21,0.00,,,0.00,meteohub,2013-03-13 23:00:00,
2013-03-13 18:05:00,76.6,33.8,30.22,SSE,154,0.0,9.0,21,0.00,,,0.00,meteohub,2013-03-13 23:05:00,
2013-03-13 18:10:00,76.6,33.8,30.22,SSE,154,0.0,5.0,21,0.00,,,0.00,meteohub,2013-03-13 23:10:00,
2013-03-13 18:15:00,76.6,33.8,30.21,South,170,0.0,9.0,21,0.00,,,0.00,meteohub,2013-03-13 23:15:00,
2013-03-13 18:20:00,76.5,33.6,30.21,SSE,165,5.0,9.0,21,0.00,,,0.00,meteohub,2013-03-13 23:20:00,
2013-03-13 18:25:00,76.1,33.3,30.21,South,178,0.0,9.0,21,0.00,,,0.00,meteohub,2013-03-13 23:25:00,
2013-03-13 18:30:00,76.1,33.3,30.20,SW,216,1.0,10.0,21,0.00,,,0.00,meteohub,2013-03-13 23:30:00,
2013-03-13 18:35:00,75.9,33.3,30.20,SW,227,0.0,10.0,21,0.00,,,0.00,meteohub,2013-03-13 23:35:00,
2013-03-13 18:40:00,76.1,33.3,30.20,SW,227,0.0,6.0,21,0.00,,,0.00,meteohub,2013-03-13 23:40:00,
2013-03-13 18:45:00,76.3,34.7,30.21,SW,227,0.0,6.0,22,0.00,,,0.00,meteohub,2013-03-13 23:45:00,
2013-03-13 18:50:00,76.5,33.6,30.21,SW,227,0.0,6.0,21,0.00,,,0.00,meteohub,2013-03-13 23:50:00,
2013-03-13 18:55:00,76.5,33.6,30.21,SW,227,0.0,0.0,21,0.00,,,0.00,meteohub,2013-03-13 23:55:00,
2013-03-13 19:00:00,76.5,33.6,30.20,South,185,1.0,0.0,21,0.00,,,0.00,meteohub,2013-03-14 00:00:00,
2013-03-13 19:05:00,76.5,33.6,30.21,South,185,0.0,0.0,21,0.00,,,0.00,meteohub,2013-03-14 00:05:00,
2013-03-13 19:10:00,76.3,33.4,30.21,South,185,0.0,4.0,21,0.00,,,0.00,meteohub,2013-03-14 00:10:00,
2013-03-13 19:15:00,75.9,33.3,30.21,South,176,0.0,5.0,21,0.00,,,0.00,meteohub,2013-03-14 00:15:00,
2013-03-13 19:20:00,75.6,34.0,30.20,South,173,0.0,5.0,22,0.00,,,0.00,meteohub,2013-03-14 00:20:00,
2013-03-13 19:25:00,75.0,33.6,30.21,South,173,0.0,5.0,22,0.00,,,0.00,meteohub,2013-03-14 00:25:00,
2013-03-13 19:30:00,74.7,34.3,30.21,South,173,0.0,5.0,23,0.00,,,0.00,meteohub,2013-03-14 00:30:00,
2013-03-13 19:35:00,74.1,32.9,30.21,South,173,0.0,0.0,22,0.00,,,0.00,meteohub,2013-03-14 00:35:00,
2013-03-13 19:40:00,73.8,33.6,30.21,South,173,0.0,0.0,23,0.00,,,0.00,meteohub,2013-03-14 00:40:00,
2013-03-13 19:45:00,73.2,33.3,30.21,South,173,0.0,0.0,23,0.00,,,0.00,meteohub,2013-03-14 00:45:00,
2013-03-13 19:51:00,72.7,32.7,30.21,South,173,0.0,0.0,23,0.00,,,0.00,meteohub,2013-03-14 00:51:00,
2013-03-13 19:56:00,72.1,33.4,30.21,South,173,0.0,0.0,24,0.00,,,0.00,meteohub,2013-03-14 00:56:00,
2013-03-13 20:01:00,71.8,33.1,30.21,South,173,0.0,0.0,24,0.00,,,0.00,meteohub,2013-03-14 01:01:00,
2013-03-13 20:06:00,71.2,33.6,30.21,South,173,0.0,0.0,25,0.00,,,0.00,meteohub,2013-03-14 01:06:00,
2013-03-13 20:11:00,70.7,33.1,30.21,South,173,0.0,0.0,25,0.00,,,0.00,meteohub,2013-03-14 01:11:00,
2013-03-13 20:16:00,70.2,33.6,30.21,South,173,0.0,0.0,26,0.00,,,0.00,meteohub,2013-03-14 01:16:00,
2013-03-13 20:21:00,69.6,34.2,30.22,South,173,0.0,0.0,27,0.00,,,0.00,meteohub,2013-03-14 01:21:00,
2013-03-13 20:26:00,68.9,34.5,30.22,South,173,0.0,0.0,28,0.00,,,0.00,meteohub,2013-03-14 01:26:00,
2013-03-13 20:31:00,68.2,35.6,30.22,South,173,0.0,0.0,30,0.00,,,0.00,meteohub,2013-03-14 01:31:00,
2013-03-13 20:36:00,67.3,34.7,30.22,South,171,0.0,0.0,30,0.00,,,0.00,meteohub,2013-03-14 01:36:00,
2013-03-13 20:41:00,66.7,34.3,30.22,SE,125,0.0,0.0,30,0.00,,,0.00,meteohub,2013-03-14 01:41:00,
2013-03-13 20:46:00,66.2,33.8,30.22,SE,126,0.0,5.0,30,0.00,,,0.00,meteohub,2013-03-14 01:46:00,
2013-03-13 20:51:00,65.8,34.3,30.22,SE,125,0.0,5.0,31,0.00,,,0.00,meteohub,2013-03-14 01:51:00,
2013-03-13 20:56:00,65.5,34.9,30.22,ESE,116,0.0,5.0,32,0.00,,,0.00,meteohub,2013-03-14 01:56:00,
2013-03-13 21:01:00,64.9,34.3,30.22,SE,125,0.0,5.0,32,0.00,,,0.00,meteohub,2013-03-14 02:01:00,
2013-03-13 21:06:00,64.6,34.9,30.22,SE,125,0.0,5.0,33,0.00,,,0.00,meteohub,2013-03-14 02:06:00,
2013-03-13 21:11:00,64.0,34.3,30.23,ESE,116,0.0,4.0,33,0.00,,,0.00,meteohub,2013-03-14 02:11:00,
2013-03-13 21:16:00,63.9,34.9,30.23,ESE,114,0.0,5.0,34,0.00,,,0.00,meteohub,2013-03-14 02:16:00,
2013-03-13 21:22:00,63.7,34.7,30.23,ESE,119,0.0,5.0,34,0.00,,,0.00,meteohub,2013-03-14 02:22:00,
2013-03-13 21:27:00,63.3,34.5,30.23,ESE,114,0.0,5.0,34,0.00,,,0.00,meteohub,2013-03-14 02:27:00,
2013-03-13 21:32:00,63.3,34.5,30.23,ESE,121,0.0,5.0,34,0.00,,,0.00,meteohub,2013-03-14 02:32:00,
2013-03-13 21:37:00,63.1,34.3,30.23,ESE,111,0.0,6.0,34,0.00,,,0.00,meteohub,2013-03-14 02:37:00,
2013-03-13 21:42:00,63.1,35.1,30.23,SE,127,0.0,6.0,35,0.00,,,0.00,meteohub,2013-03-14 02:42:00,
2013-03-13 21:47:00,63.0,34.9,30.23,SE,126,0.0,6.0,35,0.00,,,0.00,meteohub,2013-03-14 02:47:00,
2013-03-13 21:52:00,63.0,34.9,30.23,ESE,109,0.0,6.0,35,0.00,,,0.00,meteohub,2013-03-14 02:52:00,
2013-03-13 21:57:00,62.8,34.7,30.23,SE,129,0.0,5.0,35,0.00,,,0.00,meteohub,2013-03-14 02:57:00,
2013-03-13 22:02:00,62.6,35.2,30.23,SE,124,0.0,5.0,36,0.00,,,0.00,meteohub,2013-03-14 03:02:00,
2013-03-13 22:07:00,62.4,35.1,30.23,East,87,4.0,4.0,36,0.00,,,0.00,meteohub,2013-03-14 03:07:00,
2013-03-13 22:12:00,62.2,34.9,30.24,East,94,0.0,2.0,36,0.00,,,0.00,meteohub,2013-03-14 03:12:00,
2013-03-13 22:17:00,62.2,34.9,30.24,ESE,116,0.0,5.0,36,0.00,,,0.00,meteohub,2013-03-14 03:17:00,
2013-03-13 22:22:00,62.2,34.9,30.24,ESE,104,0.0,5.0,36,0.00,,,0.00,meteohub,2013-03-14 03:22:00,
2013-03-13 22:27:00,62.1,34.9,30.24,ESE,117,0.0,6.0,36,0.00,,,0.00,meteohub,2013-03-14 03:27:00,
2013-03-13 22:32:00,61.9,35.2,30.24,SE,124,0.0,6.0,37,0.00,,,0.00,meteohub,2013-03-14 03:32:00,
2013-03-13 22:37:00,61.7,35.2,30.24,SE,127,0.0,5.0,37,0.00,,,0.00,meteohub,2013-03-14 03:37:00,
2013-03-13 22:42:00,61.5,35.1,30.25,SE,132,0.0,5.0,37,0.00,,,0.00,meteohub,2013-03-14 03:42:00,
2013-03-13 22:47:00,61.5,35.6,30.24,ESE,119,0.0,7.0,38,0.00,,,0.00,meteohub,2013-03-14 03:47:00,
2013-03-13 22:52:00,61.3,35.6,30.25,SE,143,6.0,7.0,38,0.00,,,0.00,meteohub,2013-03-14 03:52:00,
2013-03-13 22:57:00,61.3,35.6,30.25,ESE,107,5.0,9.0,38,0.00,,,0.00,meteohub,2013-03-14 03:57:00,
2013-03-13 23:00:00,61.2,35.4,30.25,SE,132,0.0,9.0,38,0.00,,,0.00,meteohub,2013-03-14 04:00:00,
2013-03-13 23:05:00,61.0,35.8,30.25,SE,136,0.0,9.0,39,0.00,,,0.00,meteohub,2013-03-14 04:05:00,
2013-03-13 23:10:00,60.6,35.6,30.25,SE,133,0.0,11.0,39,0.00,,,0.00,meteohub,2013-03-14 04:10:00,
2013-03-13 23:15:00,60.4,36.0,30.25,SSE,149,0.0,8.0,40,0.00,,,0.00,meteohub,2013-03-14 04:15:00,
2013-03-13 23:20:00,60.4,36.0,30.25,SSE,148,0.0,8.0,40,0.00,,,0.00,meteohub,2013-03-14 04:20:00,
2013-03-13 23:26:00,60.3,35.8,30.25,SSE,156,0.0,12.0,40,0.00,,,0.00,meteohub,2013-03-14 04:26:00,
2013-03-13 23:31:00,60.1,35.6,30.25,SSE,147,0.0,12.0,40,0.00,,,0.00,meteohub,2013-03-14 04:31:00,
2013-03-13 23:36:00,59.7,36.0,30.25,SE,138,5.0,10.0,41,0.00,,,0.00,meteohub,2013-03-14 04:36:00,
2013-03-13 23:41:00,59.5,35.8,30.25,SE,134,0.0,10.0,41,0.00,,,0.00,meteohub,2013-03-14 04:41:00,
2013-03-13 23:46:00,59.4,36.3,30.25,SSE,148,0.0,9.0,42,0.00,,,0.00,meteohub,2013-03-14 04:46:00,
2013-03-13 23:51:00,59.0,36.0,30.25,SE,146,0.0,9.0,42,0.00,,,0.00,meteohub,2013-03-14 04:51:00,
2013-03-13 23:56:00,58.6,36.1,30.25,SE,144,0.0,6.0,43,0.00,,,0.00,meteohub,2013-03-14 04:56:00,